Find Starlink 4793

NORAD ID: 53867 Int'l Des: 2022-114 Owner: SPXS Country: US Constellation: starlink operational
LEOCIRCULAR

Live Position

Loading 3D Globe...

About Starlink 4793

Description loading...

Upcoming Passes

Passes for default location (London). Set your location on the main map for personalized predictions.

Altitude History

Loading altitude history...

Two-Line Element Set

1 53867U 22114BB 26105.91668981 .00083879 00000-0 43186-2 0 9990
2 53867 53.2162 106.8395 0001047 12.9427 16.8578 15.15696564 5861
Epoch: Apr 15, 2026 • Age: 12 hours

Current Status

Altitude 525.3 km
Velocity 7.60 km/s
Sub-Earth Point -24.87°S, 83.88°E
Launch Date Sep 19, 2022
Age 3.5 years
Type internet

Technical Details

Classification Payload
Mass 305.00 kg
Dry Mass 290.00 kg
Total Mass 305.00 kg
Length 0.20 m
Diameter 2.80 m
Span 9.00 m
Shape Box + pan
Manufacturer SPXS
Bus Type Starlink
Phase Status In Orbit
Owner/State SPXS/US

Most Searched